Date String (YYYY-MM-DD hh:mm:ss) UTC,Instrument flags,Ambient pressure (hPa),Sample flow (lpm),Bypass flow (lpm),Sample temperature (°C),Ambient temperature (°C),ASC tube jacket temperature (°C),LED temperature (°C),Box temperature (°C),Sample RH (%),Span deviation,Mass concentration (μg/m³),Mass concentration (μg/m³),Mass concentration (μg/m³)
DateTimeUTC,F1_M11,P_M11,Q1_M11,Q2_M11,T1_M11,T2_M11,T3_M11,T4_M11,T5_M11,U1_M11,ZSPAN_M11,X2_M11,X0_M11,X1_M11
2022-02-05 08:00:00,,0828.0,5.01,0.00,22.0,21.6,00.0,31.0,23.7,05.9,0000.0,0000.45,0002.14,0000.30
2022-02-05 08:01:00,,0827.9,5.00,0.00,22.1,22.4,00.0,31.1,23.9,05.9,0000.0,0000.43,0001.87,0000.29
2022-02-05 08:02:00,,0827.8,4.99,0.00,22.3,23.2,00.0,31.1,24.2,06.4,0000.0,0000.43,0001.77,0000.29
2022-02-05 08:03:00,,0828.0,5.01,0.00,22.4,23.1,00.0,31.1,24.3,06.4,0000.0,0000.46,0002.41,0000.30
2022-02-05 08:04:00,,0827.9,4.99,0.00,22.3,22.7,00.0,31.2,24.2,06.6,0000.0,0000.49,0003.03,0000.30
2022-02-05 08:05:00,,0827.8,5.01,0.00,22.3,22.3,00.0,31.2,24.0,06.6,0000.0,0000.49,0003.18,0000.29
2022-02-05 08:06:00,,0827.7,4.99,0.00,22.3,22.0,00.0,31.2,24.0,06.3,0000.0,0000.48,0004.15,0000.29
2022-02-05 08:07:00,,0827.9,5.01,0.00,22.2,21.8,00.0,31.2,23.9,06.3,0000.0,0000.47,0004.16,0000.29
2022-02-05 08:08:00,,0827.9,4.98,0.00,22.2,21.6,00.0,31.2,23.8,06.3,0000.0,0000.46,0003.51,0000.28
2022-02-05 08:09:00,,0827.9,5.00,0.00,22.1,21.4,00.0,31.2,23.8,06.0,0000.0,0000.44,0003.09,0000.28
2022-02-05 08:10:00,,0827.9,5.01,0.00,22.1,21.3,00.0,31.1,23.7,06.1,0000.0,0000.43,0003.08,0000.27
2022-02-05 08:11:00,,0827.9,4.99,0.00,22.1,21.2,00.0,31.1,23.6,06.5,0000.0,0000.43,0003.07,0000.28
2022-02-05 08:12:00,,0827.9,5.00,0.00,22.1,21.7,00.0,31.1,23.7,06.5,0000.0,0000.44,0003.08,0000.28
2022-02-05 08:13:00,,0827.8,5.00,0.00,22.2,22.6,00.0,31.2,24.0,06.2,0000.0,0000.43,0003.09,0000.28
2022-02-05 08:14:00,,0827.7,4.99,0.00,22.4,23.2,00.0,31.2,24.3,06.3,0000.0,0000.41,0002.56,0000.27
2022-02-05 08:15:00,,0827.7,5.00,0.00,22.4,23.0,00.0,31.2,24.3,06.1,0000.0,0000.37,0001.85,0000.27
2022-02-05 08:16:00,,0827.7,5.00,0.00,22.4,22.6,00.0,31.3,24.1,06.5,0000.0,0000.39,0001.85,0000.27
2022-02-05 08:17:00,,0827.8,4.99,0.00,22.3,22.3,00.0,31.3,24.0,06.3,0000.0,0000.38,0000.72,0000.27
2022-02-05 08:18:00,,0827.7,5.02,0.00,22.3,22.0,00.0,31.2,23.9,06.6,0000.0,0000.39,0000.77,0000.27
2022-02-05 08:19:00,,0827.7,4.99,0.00,22.2,21.8,00.0,31.2,23.8,06.7,0000.0,0000.38,0000.76,0000.26
2022-02-05 08:20:00,,0827.4,5.01,0.00,22.2,21.6,00.0,31.2,23.8,06.6,0000.0,0000.40,0000.80,0000.27
2022-02-05 08:21:00,,0827.3,4.99,0.00,22.1,21.4,00.0,31.2,23.7,07.1,0000.0,0000.42,0000.85,0000.27
2022-02-05 08:22:00,,0827.4,4.99,0.00,22.1,21.3,00.0,31.2,23.7,07.2,0000.0,0000.44,0000.88,0000.28
2022-02-05 08:23:00,,0827.4,5.01,0.00,22.1,21.1,00.0,31.2,23.6,07.2,0000.0,0000.45,0000.90,0000.28
2022-02-05 08:24:00,,0827.4,5.01,0.00,22.1,21.5,00.0,31.2,23.7,06.5,0000.0,0000.47,0000.93,0000.29
2022-02-05 08:25:00,,0827.4,5.00,0.00,22.2,22.3,00.0,31.2,24.0,06.6,0000.0,0000.47,0000.78,0000.30
2022-02-05 08:26:00,,0827.4,4.99,0.00,22.4,23.1,00.0,31.3,24.3,06.6,0000.0,0000.47,0000.77,0000.31
2022-02-05 08:27:00,,0827.3,5.01,0.00,22.4,23.1,00.0,31.3,24.3,06.8,0000.0,0000.45,0000.73,0000.31
2022-02-05 08:28:00,,0827.3,5.00,0.00,22.4,22.7,00.0,31.3,24.2,06.8,0000.0,0000.50,0000.86,0000.32
2022-02-05 08:29:00,,0827.2,5.00,0.00,22.4,22.3,00.0,31.3,24.1,07.0,0000.0,0000.49,0001.02,0000.32
2022-02-05 08:30:00,,0827.3,5.01,0.00,22.3,22.0,00.0,31.3,24.0,06.9,0000.0,0000.49,0001.51,0000.33
2022-02-05 08:31:00,,0827.3,4.99,0.00,22.3,21.8,00.0,31.3,23.9,06.8,0000.0,0000.50,0001.53,0000.33
2022-02-05 08:32:00,,0827.2,5.00,0.00,22.3,21.5,00.0,31.3,23.9,06.8,0000.0,0000.50,0001.53,0000.33
2022-02-05 08:33:00,,0827.4,5.01,0.00,22.2,21.4,00.0,31.3,23.8,06.3,0000.0,0000.52,0001.63,0000.33
2022-02-05 08:34:00,,0827.4,4.99,0.00,22.2,21.3,00.0,31.2,23.7,06.3,0000.0,0000.53,0001.68,0000.32
2022-02-05 08:35:00,,0827.4,5.01,0.00,22.2,21.4,00.0,31.2,23.7,06.3,0000.0,0000.53,0001.71,0000.32
2022-02-05 08:36:00,,0827.4,5.00,0.00,22.3,22.2,00.0,31.3,24.0,06.2,0000.0,0000.55,0001.78,0000.31
2022-02-05 08:37:00,,0827.4,4.99,0.00,22.4,23.1,00.0,31.3,24.3,05.9,0000.0,0000.56,0001.86,0000.30
2022-02-05 08:38:00,,0827.4,5.00,0.00,22.5,23.1,00.0,31.3,24.4,05.9,0000.0,0000.55,0002.37,0000.30
2022-02-05 08:39:00,,0827.4,5.00,0.00,22.5,22.7,00.0,31.3,24.3,05.7,0000.0,0000.51,0004.04,0000.29
2022-02-05 08:40:00,,0827.3,5.00,0.00,22.4,22.3,00.0,31.3,24.1,05.7,0000.0,0000.52,0003.81,0000.28
2022-02-05 08:41:00,,0827.2,4.99,0.00,22.3,21.9,00.0,31.3,23.9,05.9,0000.0,0000.53,0003.36,0000.28
2022-02-05 08:42:00,,0827.2,5.01,0.00,22.2,21.6,00.0,31.3,23.8,05.6,0000.0,0000.51,0003.33,0000.28
2022-02-05 08:43:00,,0827.3,4.99,0.00,22.2,21.4,00.0,31.3,23.7,05.7,0000.0,0000.49,0003.29,0000.27
2022-02-05 08:44:00,,0827.3,5.01,0.00,22.1,21.2,00.0,31.2,23.6,05.9,0000.0,0000.47,0003.21,0000.27
2022-02-05 08:45:00,,0827.4,4.98,0.00,22.0,21.1,00.0,31.2,23.5,06.1,0000.0,0000.45,0003.15,0000.27
2022-02-05 08:46:00,,0827.4,5.01,0.00,22.0,21.0,00.0,31.2,23.4,06.1,0000.0,0000.43,0003.08,0000.27
2022-02-05 08:47:00,,0827.4,5.00,0.00,21.9,20.9,00.0,31.1,23.4,06.0,0000.0,0000.42,0003.04,0000.28
2022-02-05 08:48:00,,0827.3,5.01,0.00,21.9,20.9,00.0,31.1,23.3,06.3,0000.0,0000.39,0002.96,0000.27
2022-02-05 08:49:00,,0827.3,4.99,0.00,21.9,21.7,00.0,31.1,23.5,05.8,0000.0,0000.40,0002.57,0000.27
2022-02-05 08:50:00,,0827.3,5.01,0.00,22.1,22.7,00.0,31.1,23.9,06.3,0000.0,0000.39,0000.61,0000.27
2022-02-05 08:51:00,,0827.4,5.01,0.00,22.2,23.0,00.0,31.2,24.1,06.1,0000.0,0000.38,0000.77,0000.26
2022-02-05 08:52:00,,0827.4,5.00,0.00,22.2,22.4,00.0,31.2,24.0,06.1,0000.0,0000.36,0000.82,0000.26
2022-02-05 08:53:00,,0827.4,4.99,0.00,22.1,22.0,00.0,31.2,23.8,06.2,0000.0,0000.37,0000.86,0000.26
2022-02-05 08:54:00,,0827.3,5.00,0.00,22.1,21.7,00.0,31.1,23.6,06.2,0000.0,0000.40,0001.03,0000.26
2022-02-05 08:55:00,,0827.2,5.00,0.00,22.0,21.4,00.0,31.1,23.5,05.9,0000.0,0000.40,0001.04,0000.26
2022-02-05 08:56:00,,0827.3,5.00,0.00,21.9,21.2,00.0,31.1,23.4,06.2,0000.0,0000.41,0001.28,0000.26
2022-02-05 08:57:00,,0827.0,4.99,0.00,21.9,21.1,00.0,31.1,23.3,05.8,0000.0,0000.41,0001.46,0000.25
2022-02-05 08:58:00,,0826.9,5.00,0.00,21.8,21.0,00.0,31.0,23.3,06.2,0000.0,0000.39,0001.42,0000.25
2022-02-05 08:59:00,,0826.8,5.00,0.00,21.8,20.9,00.0,31.0,23.3,06.4,0000.0,0000.40,0002.15,0000.24
